Change the Weather History Date:

Saturday, March 8, 2014

  Actual Average (KGON) Record (KGON)
Temperature  
Mean Temperature 38 °F -  
Max Temperature 48 °F 44 °F 69 °F (1987)
Min Temperature 28 °F 24 °F 7 °F (1986)
Degree Days  
Heating Degree Days 27    
Moisture  
Dew Point 27 °F    
Average Humidity 62    
Maximum Humidity 85    
Minimum Humidity 38    
Precipitation  
Precipitation 0.00 in - - ()
Sea Level Pressure  
Sea Level Pressure 29.81 in    
Wind  
Wind Speed 6 mph (NW)    
Max Wind Speed 14 mph    
Max Gust Speed -    
Visibility 10 miles    
Events      
Averages and records for this station are not official NWS values.
T = Trace of Precipitation, MM = Missing Value Source: NWS Daily Summary

Daily Weather History Graph

Daily Weather History Graph

Search for Another Location

Airport or City:

Trip Planner

Search our weather history database for the weather conditions in past years. The results will help you decide how hot, cold, wet, or windy it might be!

Date:

Astronomy

Mar. 08, 2014 Rise Set
Actual Time 6:10 AM EST 5:45 PM EST
Civil Twilight 5:43 AM EST 6:13 PM EST
Nautical Twilight 5:11 AM EST 6:45 PM EST
Astronomical Twilight 4:38 AM EST 7:17 PM EST
Moon 10:45 AM EST (3/8) 12:45 AM EST (3/8)
Length of Visible Light 12h 30m
Length of Day
11h 35m
First Quarter, 51% of the Moon is Illuminated
Mar 8
First Quarter
Mar 16
Full
Mar 23
Last Quarter
Mar 30
New
Apr 7
First Quarter

Hourly Weather History & Observations

Time (EST) Temp. Windchill Dew Point Humidity Pressure Visibility Wind Dir Wind Speed Gust Speed Precip Events Conditions
12:53 AM 33.1 °F 28.7 °F 27.0 °F 78% 29.89 in 10.0 mi North 4.6 mph - N/A   Clear
1:53 AM 32.0 °F 25.6 °F 26.1 °F 79% 29.85 in 10.0 mi North 6.9 mph - N/A   Clear
2:53 AM 32.0 °F 26.4 °F 26.1 °F 79% 29.83 in 10.0 mi North 5.8 mph - N/A   Clear
3:53 AM 30.9 °F 24.3 °F 26.1 °F 82% 29.83 in 10.0 mi North 6.9 mph - N/A   Clear
4:53 AM 30.9 °F 27.5 °F 25.0 °F 79% 29.82 in 10.0 mi NNE 3.5 mph - N/A   Clear
5:53 AM 28.0 °F 24.2 °F 24.1 °F 85% 29.82 in 10.0 mi North 3.5 mph - N/A   Clear
6:53 AM 30.0 °F 25.2 °F 25.0 °F 82% 29.83 in 10.0 mi NNW 4.6 mph - N/A   Clear
7:53 AM 37.0 °F 32.4 °F 28.0 °F 70% 29.83 in 10.0 mi NNW 5.8 mph - N/A   Clear
8:53 AM 42.1 °F 38.4 °F 28.0 °F 58% 29.83 in 10.0 mi NW 5.8 mph - N/A   Clear
9:53 AM 46.0 °F 43.9 °F 27.0 °F 47% 29.81 in 10.0 mi NNW 4.6 mph - N/A   Clear
10:53 AM 45.0 °F 40.6 °F 28.9 °F 53% 29.80 in 10.0 mi WSW 8.1 mph - N/A   Clear
11:53 AM 44.1 °F 38.6 °F 30.0 °F 58% 29.78 in 10.0 mi SW 10.4 mph - N/A   Clear
12:53 PM 44.1 °F 37.4 °F 30.9 °F 60% 29.75 in 10.0 mi SW 13.8 mph - N/A   Mostly Cloudy
1:53 PM 44.1 °F 39.0 °F 33.1 °F 65% 29.73 in 10.0 mi SW 9.2 mph - N/A   Clear
2:53 PM 46.0 °F 41.4 °F 32.0 °F 58% 29.73 in 10.0 mi SW 9.2 mph - N/A   Clear
3:53 PM 46.9 °F - 30.9 °F 54% 29.74 in 10.0 mi SW 6.9 mph - N/A   Partly Cloudy
4:53 PM 46.9 °F - 30.9 °F 54% 29.75 in 10.0 mi WSW 5.8 mph - N/A   Clear
5:53 PM 48.9 °F - 24.1 °F 38% 29.78 in 10.0 mi WNW 4.6 mph - N/A   Clear
6:53 PM 46.9 °F - 24.1 °F 41% 29.81 in 10.0 mi WNW 4.6 mph - N/A   Clear
7:53 PM 45.0 °F 41.8 °F 25.0 °F 46% 29.82 in 10.0 mi WNW 5.8 mph - N/A   Clear
8:53 PM 43.0 °F 38.2 °F 25.0 °F 49% 29.84 in 10.0 mi NNW 8.1 mph - N/A   Clear
9:53 PM 42.1 °F 36.6 °F 26.1 °F 53% 29.85 in 10.0 mi NW 9.2 mph - N/A   Mostly Cloudy
10:53 PM 41.0 °F 34.3 °F 26.1 °F 55% 29.85 in 10.0 mi NNW 11.5 mph - N/A   Overcast
11:53 PM 41.0 °F 36.4 °F 26.1 °F 55% 29.86 in 10.0 mi NW 6.9 mph - N/A   Overcast